owner,sensor,date,latitude,longitude,vertical_datum,sea_water_practical_salinity,qcFlag 
NERRS,ioos:station:NOAA.NERRS:marscwq:1,2011-11-02T16:30:00Z,27.8383,-97.0503,0.0,34.8,1111122 
NERRS,ioos:station:NOAA.NERRS:marscwq:1,2011-11-02T17:30:00Z,27.8383,-97.0503,0.0,34.9,1111122 
NERRS,ioos:station:NOAA.NERRS:marscwq:1,2011-11-02T18:00:00Z,27.8383,-97.0503,0.0,34.8,1111122 
NERRS,ioos:station:NOAA.NERRS:marscwq:1,2011-11-02T18:30:00Z,27.8383,-97.0503,0.0,34.8,1111122 
NERRS,ioos:station:NOAA.NERRS:marscwq:1,2011-11-02T19:00:00Z,27.8383,-97.0503,0.0,35.1,1111122 
NERRS,ioos:station:NOAA.NERRS:marscwq:1,2011-11-02T19:30:00Z,27.8383,-97.0503,0.0,35.3,1111122 
NERRS,ioos:station:NOAA.NERRS:marscwq:1,2011-11-02T20:00:00Z,27.8383,-97.0503,0.0,35.5,1111122 
NERRS,ioos:station:NOAA.NERRS:marscwq:1,2011-11-02T20:30:00Z,27.8383,-97.0503,0.0,35.6,1111122 
NERRS,ioos:station:NOAA.NERRS:marscwq:1,2011-11-02T21:00:00Z,27.8383,-97.0503,0.0,36.1,1111122 
NERRS,ioos:station:NOAA.NERRS:marscwq:1,2011-11-02T21:30:00Z,27.8383,-97.0503,0.0,36.0,1111122 
NERRS,ioos:station:NOAA.NERRS:marscwq:1,2011-11-02T22:00:00Z,27.8383,-97.0503,0.0,35.8,1111122 
NERRS,ioos:station:NOAA.NERRS:marscwq:1,2011-11-02T22:30:00Z,27.8383,-97.0503,0.0,36.0,1111122 
NERRS,ioos:station:NOAA.NERRS:marscwq:1,2011-11-02T23:00:00Z,27.8383,-97.0503,0.0,36.1,1111122 
NERRS,ioos:station:NOAA.NERRS:marscwq:1,2011-11-02T23:30:00Z,27.8383,-97.0503,0.0,35.7,1111122 
NERRS,ioos:station:NOAA.NERRS:marscwq:1,2011-11-03T06:00:00Z,27.8383,-97.0503,0.0,35.0,1111122 
NERRS,ioos:station:NOAA.NERRS:marscwq:1,2011-11-03T06:30:00Z,27.8383,-97.0503,0.0,35.0,1111122 
NERRS,ioos:station:NOAA.NERRS:marscwq:1,2011-11-03T07:00:00Z,27.8383,-97.0503,0.0,34.9,1111122 
NERRS,ioos:station:NOAA.NERRS:marscwq:1,2011-11-03T07:30:00Z,27.8383,-97.0503,0.0,34.9,1111122 
NERRS,ioos:station:NOAA.NERRS:marscwq:1,2011-11-03T08:00:00Z,27.8383,-97.0503,0.0,34.8,1111122 
NERRS,ioos:station:NOAA.NERRS:marscwq:1,2011-11-03T08:30:00Z,27.8383,-97.0503,0.0,34.8,1111122 
NERRS,ioos:station:NOAA.NERRS:marscwq:1,2011-11-03T09:00:00Z,27.8383,-97.0503,0.0,34.7,1111122 
NERRS,ioos:station:NOAA.NERRS:marscwq:1,2011-11-03T09:30:00Z,27.8383,-97.0503,0.0,34.7,1111122 
NERRS,ioos:station:NOAA.NERRS:marscwq:1,2011-11-03T10:00:00Z,27.8383,-97.0503,0.0,34.8,1111122 
NERRS,ioos:station:NOAA.NERRS:marscwq:1,2011-11-03T10:30:00Z,27.8383,-97.0503,0.0,34.8,1111122 
NERRS,ioos:station:NOAA.NERRS:marscwq:1,2011-11-03T11:00:00Z,27.8383,-97.0503,0.0,35.1,1111122 
NERRS,ioos:station:NOAA.NERRS:marscwq:1,2011-11-03T11:30:00Z,27.8383,-97.0503,0.0,35.1,1111122 
NERRS,ioos:station:NOAA.NERRS:marscwq:1,2011-11-03T12:00:00Z,27.8383,-97.0503,0.0,35.1,1111122 
NERRS,ioos:station:NOAA.NERRS:marscwq:1,2011-11-03T12:30:00Z,27.8383,-97.0503,0.0,35.3,1111122 
NERRS,ioos:station:NOAA.NERRS:marscwq:1,2011-11-03T13:00:00Z,27.8383,-97.0503,0.0,35.5,1111122 
NERRS,ioos:station:NOAA.NERRS:marscwq:1,2011-11-03T13:30:00Z,27.8383,-97.0503,0.0,35.7,1111122 
NERRS,ioos:station:NOAA.NERRS:marscwq:1,2011-11-03T14:00:00Z,27.8383,-97.0503,0.0,35.7,1111122 
NERRS,ioos:station:NOAA.NERRS:marscwq:1,2011-11-03T14:30:00Z,27.8383,-97.0503,0.0,35.9,1111122 
NERRS,ioos:station:NOAA.NERRS:marscwq:1,2011-11-03T15:00:00Z,27.8383,-97.0503,0.0,35.9,1111122 
NERRS,ioos:station:NOAA.NERRS:marscwq:1,2011-11-03T15:30:00Z,27.8383,-97.0503,0.0,36.1,1111122 
NERRS,ioos:station:NOAA.NERRS:marscwq:1,2011-11-03T16:00:00Z,27.8383,-97.0503,0.0,36.2,1111122 
NERRS,ioos:station:NOAA.NERRS:marscwq:1,2011-11-03T16:30:00Z,27.8383,-97.0503,0.0,36.4,1111122 
NERRS,ioos:station:NOAA.NERRS:marscwq:1,2011-11-03T17:00:00Z,27.8383,-97.0503,0.0,36.5,1111122 
NERRS,ioos:station:NOAA.NERRS:marscwq:1,2011-11-03T17:30:00Z,27.8383,-97.0503,0.0,36.7,1111122 
NERRS,ioos:station:NOAA.NERRS:marscwq:1,2011-11-03T18:00:00Z,27.8383,-97.0503,0.0,36.7,1111122 
NERRS,ioos:station:NOAA.NERRS:marscwq:1,2011-11-03T18:30:00Z,27.8383,-97.0503,0.0,36.7,1111122 
NERRS,ioos:station:NOAA.NERRS:marscwq:1,2011-11-03T19:00:00Z,27.8383,-97.0503,0.0,36.8,1111122 
NERRS,ioos:station:NOAA.NERRS:marscwq:1,2011-11-03T19:30:00Z,27.8383,-97.0503,0.0,36.8,1111122 
NERRS,ioos:station:NOAA.NERRS:marscwq:1,2011-11-03T20:00:00Z,27.8383,-97.0503,0.0,37.0,1111122 
NERRS,ioos:station:NOAA.NERRS:marscwq:1,2011-11-03T20:30:00Z,27.8383,-97.0503,0.0,37.1,1111122 
NERRS,ioos:station:NOAA.NERRS:marscwq:1,2011-11-03T21:00:00Z,27.8383,-97.0503,0.0,37.2,1111122 
NERRS,ioos:station:NOAA.NERRS:marscwq:1,2011-11-03T21:30:00Z,27.8383,-97.0503,0.0,37.2,1111122 
NERRS,ioos:station:NOAA.NERRS:marscwq:1,2011-11-03T22:00:00Z,27.8383,-97.0503,0.0,37.3,1111122 
NERRS,ioos:station:NOAA.NERRS:marscwq:1,2011-11-03T22:30:00Z,27.8383,-97.0503,0.0,37.2,1111122 
NERRS,ioos:station:NOAA.NERRS:marscwq:1,2011-11-03T23:00:00Z,27.8383,-97.0503,0.0,37.3,1111122 
NERRS,ioos:station:NOAA.NERRS:marscwq:1,2011-11-03T23:30:00Z,27.8383,-97.0503,0.0,37.4,1111122 
NERRS,ioos:station:NOAA.NERRS:marscwq:1,2011-11-04T06:00:00Z,27.8383,-97.0503,0.0,34.6,1111122 
NERRS,ioos:station:NOAA.NERRS:marscwq:1,2011-11-04T06:30:00Z,27.8383,-97.0503,0.0,34.7,1111122 
NERRS,ioos:station:NOAA.NERRS:marscwq:1,2011-11-04T07:00:00Z,27.8383,-97.0503,0.0,34.7,1111122 
NERRS,ioos:station:NOAA.NERRS:marscwq:1,2011-11-04T07:30:00Z,27.8383,-97.0503,0.0,34.6,1111122 
NERRS,ioos:station:NOAA.NERRS:marscwq:1,2011-11-04T08:00:00Z,27.8383,-97.0503,0.0,34.6,1111122 
NERRS,ioos:station:NOAA.NERRS:marscwq:1,2011-11-04T08:30:00Z,27.8383,-97.0503,0.0,34.6,1111122 
NERRS,ioos:station:NOAA.NERRS:marscwq:1,2011-11-04T09:00:00Z,27.8383,-97.0503,0.0,34.6,1111122 
NERRS,ioos:station:NOAA.NERRS:marscwq:1,2011-11-04T09:30:00Z,27.8383,-97.0503,0.0,34.6,1111122 
NERRS,ioos:station:NOAA.NERRS:marscwq:1,2011-11-04T10:00:00Z,27.8383,-97.0503,0.0,34.6,1111122 
NERRS,ioos:station:NOAA.NERRS:marscwq:1,2011-11-04T10:30:00Z,27.8383,-97.0503,0.0,34.6,1111122 
NERRS,ioos:station:NOAA.NERRS:marscwq:1,2011-11-04T11:00:00Z,27.8383,-97.0503,0.0,34.6,1111122 
NERRS,ioos:station:NOAA.NERRS:marscwq:1,2011-11-04T11:30:00Z,27.8383,-97.0503,0.0,34.6,1111122 
NERRS,ioos:station:NOAA.NERRS:marscwq:1,2011-11-04T12:00:00Z,27.8383,-97.0503,0.0,34.6,1111122 
NERRS,ioos:station:NOAA.NERRS:marscwq:1,2011-11-04T12:30:00Z,27.8383,-97.0503,0.0,34.6,1111122 
NERRS,ioos:station:NOAA.NERRS:marscwq:1,2011-11-04T13:00:00Z,27.8383,-97.0503,0.0,34.9,1111122 
NERRS,ioos:station:NOAA.NERRS:marscwq:1,2011-11-04T13:30:00Z,27.8383,-97.0503,0.0,35.2,1111122 
NERRS,ioos:station:NOAA.NERRS:marscwq:1,2011-11-04T14:00:00Z,27.8383,-97.0503,0.0,35.2,1111122 
NERRS,ioos:station:NOAA.NERRS:marscwq:1,2011-11-04T14:30:00Z,27.8383,-97.0503,0.0,36.1,1111122 
NERRS,ioos:station:NOAA.NERRS:marscwq:1,2011-11-04T15:00:00Z,27.8383,-97.0503,0.0,35.9,1111122 
NERRS,ioos:station:NOAA.NERRS:marscwq:1,2011-11-04T15:30:00Z,27.8383,-97.0503,0.0,35.9,1111122 
NERRS,ioos:station:NOAA.NERRS:marscwq:1,2011-11-04T16:00:00Z,27.8383,-97.0503,0.0,37.0,1111122 
NERRS,ioos:station:NOAA.NERRS:marscwq:1,2011-11-04T16:30:00Z,27.8383,-97.0503,0.0,37.0,1111122 
NERRS,ioos:station:NOAA.NERRS:marscwq:1,2011-11-04T17:30:00Z,27.8383,-97.0503,0.0,36.3,1111122 
NERRS,ioos:station:NOAA.NERRS:marscwq:1,2011-11-04T18:00:00Z,27.8383,-97.0503,0.0,36.5,1111122 
NERRS,ioos:station:NOAA.NERRS:marscwq:1,2011-11-04T18:30:00Z,27.8383,-97.0503,0.0,36.5,1111122 
NERRS,ioos:station:NOAA.NERRS:marscwq:1,2011-11-10T20:00:00Z,27.8383,-97.0503,0.0,36.5,1111122 
NERRS,ioos:station:NOAA.NERRS:marscwq:1,2011-11-10T20:30:00Z,27.8383,-97.0503,0.0,34.9,1111122 
NERRS,ioos:station:NOAA.NERRS:marscwq:1,2011-11-10T21:00:00Z,27.8383,-97.0503,0.0,34.7,1111122 
NERRS,ioos:station:NOAA.NERRS:marscwq:1,2011-11-10T22:00:00Z,27.8383,-97.0503,0.0,34.1,1111122 
NERRS,ioos:station:NOAA.NERRS:marscwq:1,2011-11-10T22:30:00Z,27.8383,-97.0503,0.0,34.0,1111122 
NERRS,ioos:station:NOAA.NERRS:marscwq:1,2011-11-10T23:00:00Z,27.8383,-97.0503,0.0,34.1,1111122 
NERRS,ioos:station:NOAA.NERRS:marscwq:1,2011-11-10T23:30:00Z,27.8383,-97.0503,0.0,34.1,1111122 
NERRS,ioos:station:NOAA.NERRS:marscwq:1,2011-11-11T00:30:00Z,27.8383,-97.0503,0.0,34.0,1111122 
NERRS,ioos:station:NOAA.NERRS:marscwq:1,2011-11-11T01:00:00Z,27.8383,-97.0503,0.0,34.0,1111122 
NERRS,ioos:station:NOAA.NERRS:marscwq:1,2011-11-11T01:30:00Z,27.8383,-97.0503,0.0,34.0,1111122 
NERRS,ioos:station:NOAA.NERRS:marscwq:1,2011-11-11T02:00:00Z,27.8383,-97.0503,0.0,34.0,1111122 
NERRS,ioos:station:NOAA.NERRS:marscwq:1,2011-11-11T02:30:00Z,27.8383,-97.0503,0.0,34.0,1111122 
NERRS,ioos:station:NOAA.NERRS:marscwq:1,2011-11-11T03:00:00Z,27.8383,-97.0503,0.0,34.0,1111122 
NERRS,ioos:station:NOAA.NERRS:marscwq:1,2011-11-11T03:30:00Z,27.8383,-97.0503,0.0,33.9,1111122 
NERRS,ioos:station:NOAA.NERRS:marscwq:1,2011-11-11T04:00:00Z,27.8383,-97.0503,0.0,34.0,1111122 
NERRS,ioos:station:NOAA.NERRS:marscwq:1,2011-11-11T04:30:00Z,27.8383,-97.0503,0.0,34.0,1111122 
NERRS,ioos:station:NOAA.NERRS:marscwq:1,2011-11-11T05:00:00Z,27.8383,-97.0503,0.0,34.0,1111122 
NERRS,ioos:station:NOAA.NERRS:marscwq:1,2011-11-11T05:30:00Z,27.8383,-97.0503,0.0,34.0,1111122 
NERRS,ioos:station:NOAA.NERRS:marscwq:1,2011-11-11T06:00:00Z,27.8383,-97.0503,0.0,34.0,1111122 
NERRS,ioos:station:NOAA.NERRS:marscwq:1,2011-11-11T06:30:00Z,27.8383,-97.0503,0.0,34.0,1111122 
NERRS,ioos:station:NOAA.NERRS:marscwq:1,2011-11-11T07:00:00Z,27.8383,-97.0503,0.0,34.0,1111122 
NERRS,ioos:station:NOAA.NERRS:marscwq:1,2011-11-11T07:30:00Z,27.8383,-97.0503,0.0,34.0,1111122 
NERRS,ioos:station:NOAA.NERRS:marscwq:1,2011-11-11T08:00:00Z,27.8383,-97.0503,0.0,34.0,1111122 
NERRS,ioos:station:NOAA.NERRS:marscwq:1,2011-11-11T08:30:00Z,27.8383,-97.0503,0.0,34.0,1111122 
NERRS,ioos:station:NOAA.NERRS:marscwq:1,2011-11-11T09:00:00Z,27.8383,-97.0503,0.0,34.0,1111122 
NERRS,ioos:station:NOAA.NERRS:marscwq:1,2011-11-11T09:30:00Z,27.8383,-97.0503,0.0,34.0,1111122 
NERRS,ioos:station:NOAA.NERRS:marscwq:1,2011-11-11T10:00:00Z,27.8383,-97.0503,0.0,34.0,1111122 
NERRS,ioos:station:NOAA.NERRS:marscwq:1,2011-11-11T10:30:00Z,27.8383,-97.0503,0.0,34.0,1111122 
NERRS,ioos:station:NOAA.NERRS:marscwq:1,2011-11-11T11:00:00Z,27.8383,-97.0503,0.0,34.1,1111122 
NERRS,ioos:station:NOAA.NERRS:marscwq:1,2011-11-11T11:30:00Z,27.8383,-97.0503,0.0,34.1,1111122 
NERRS,ioos:station:NOAA.NERRS:marscwq:1,2011-11-11T12:00:00Z,27.8383,-97.0503,0.0,34.2,1111122 
NERRS,ioos:station:NOAA.NERRS:marscwq:1,2011-11-11T12:30:00Z,27.8383,-97.0503,0.0,34.4,1111122 
NERRS,ioos:station:NOAA.NERRS:marscwq:1,2011-11-11T13:00:00Z,27.8383,-97.0503,0.0,34.8,1111122 
NERRS,ioos:station:NOAA.NERRS:marscwq:1,2011-11-11T13:30:00Z,27.8383,-97.0503,0.0,35.1,1111122 
NERRS,ioos:station:NOAA.NERRS:marscwq:1,2011-11-11T14:00:00Z,27.8383,-97.0503,0.0,35.2,1111122 
NERRS,ioos:station:NOAA.NERRS:marscwq:1,2011-11-11T14:30:00Z,27.8383,-97.0503,0.0,35.3,1111122 
NERRS,ioos:station:NOAA.NERRS:marscwq:1,2011-11-11T15:00:00Z,27.8383,-97.0503,0.0,35.6,1111122 
NERRS,ioos:station:NOAA.NERRS:marscwq:1,2011-11-11T15:30:00Z,27.8383,-97.0503,0.0,36.1,1111122 
NERRS,ioos:station:NOAA.NERRS:marscwq:1,2011-11-11T16:00:00Z,27.8383,-97.0503,0.0,36.1,1111122 
NERRS,ioos:station:NOAA.NERRS:marscwq:1,2011-11-11T16:30:00Z,27.8383,-97.0503,0.0,36.3,1111122 
NERRS,ioos:station:NOAA.NERRS:marscwq:1,2011-11-11T17:00:00Z,27.8383,-97.0503,0.0,36.2,1111122 
NERRS,ioos:station:NOAA.NERRS:marscwq:1,2011-11-11T17:30:00Z,27.8383,-97.0503,0.0,36.4,1111122 
NERRS,ioos:station:NOAA.NERRS:marscwq:1,2011-11-11T18:00:00Z,27.8383,-97.0503,0.0,36.8,1111122 
NERRS,ioos:station:NOAA.NERRS:marscwq:1,2011-11-11T18:30:00Z,27.8383,-97.0503,0.0,37.2,1111122 
NERRS,ioos:station:NOAA.NERRS:marscwq:1,2011-11-11T19:00:00Z,27.8383,-97.0503,0.0,37.6,1111122 
NERRS,ioos:station:NOAA.NERRS:marscwq:1,2011-11-11T19:30:00Z,27.8383,-97.0503,0.0,37.1,1111122 
NERRS,ioos:station:NOAA.NERRS:marscwq:1,2011-11-11T20:00:00Z,27.8383,-97.0503,0.0,36.8,1111122 
NERRS,ioos:station:NOAA.NERRS:marscwq:1,2011-11-11T20:30:00Z,27.8383,-97.0503,0.0,36.4,1111122 
NERRS,ioos:station:NOAA.NERRS:marscwq:1,2011-11-11T21:00:00Z,27.8383,-97.0503,0.0,35.1,1111122 
NERRS,ioos:station:NOAA.NERRS:marscwq:1,2011-11-11T21:30:00Z,27.8383,-97.0503,0.0,34.5,1111122 
NERRS,ioos:station:NOAA.NERRS:marscwq:1,2011-11-11T22:00:00Z,27.8383,-97.0503,0.0,34.4,1111122 
NERRS,ioos:station:NOAA.NERRS:marscwq:1,2011-11-11T22:30:00Z,27.8383,-97.0503,0.0,34.5,1111122 
NERRS,ioos:station:NOAA.NERRS:marscwq:1,2011-11-11T23:00:00Z,27.8383,-97.0503,0.0,34.5,1111122 
NERRS,ioos:station:NOAA.NERRS:marscwq:1,2011-11-11T23:30:00Z,27.8383,-97.0503,0.0,34.5,1111122 
NERRS,ioos:station:NOAA.NERRS:marscwq:1,2011-11-12T00:00:00Z,27.8383,-97.0503,0.0,34.5,1111122 
NERRS,ioos:station:NOAA.NERRS:marscwq:1,2011-11-12T00:30:00Z,27.8383,-97.0503,0.0,34.4,1111122 
NERRS,ioos:station:NOAA.NERRS:marscwq:1,2011-11-12T01:00:00Z,27.8383,-97.0503,0.0,34.3,1111122 
NERRS,ioos:station:NOAA.NERRS:marscwq:1,2011-11-12T01:30:00Z,27.8383,-97.0503,0.0,34.3,1111122 
NERRS,ioos:station:NOAA.NERRS:marscwq:1,2011-11-12T02:00:00Z,27.8383,-97.0503,0.0,34.3,1111122 
NERRS,ioos:station:NOAA.NERRS:marscwq:1,2011-11-12T02:30:00Z,27.8383,-97.0503,0.0,34.3,1111122 
NERRS,ioos:station:NOAA.NERRS:marscwq:1,2011-11-12T03:00:00Z,27.8383,-97.0503,0.0,34.3,1111122 
NERRS,ioos:station:NOAA.NERRS:marscwq:1,2011-11-12T03:30:00Z,27.8383,-97.0503,0.0,34.3,1111122 
NERRS,ioos:station:NOAA.NERRS:marscwq:1,2011-11-12T04:00:00Z,27.8383,-97.0503,0.0,34.3,1111122 
NERRS,ioos:station:NOAA.NERRS:marscwq:1,2011-11-12T04:30:00Z,27.8383,-97.0503,0.0,34.3,1111122 
NERRS,ioos:station:NOAA.NERRS:marscwq:1,2011-11-12T05:00:00Z,27.8383,-97.0503,0.0,34.3,1111122 
NERRS,ioos:station:NOAA.NERRS:marscwq:1,2011-11-12T05:30:00Z,27.8383,-97.0503,0.0,34.3,1111122 
NERRS,ioos:station:NOAA.NERRS:marscwq:1,2011-11-12T06:00:00Z,27.8383,-97.0503,0.0,34.3,1111122 
NERRS,ioos:station:NOAA.NERRS:marscwq:1,2011-11-12T06:30:00Z,27.8383,-97.0503,0.0,34.3,1111122 
NERRS,ioos:station:NOAA.NERRS:marscwq:1,2011-11-12T07:00:00Z,27.8383,-97.0503,0.0,34.3,1111122 
NERRS,ioos:station:NOAA.NERRS:marscwq:1,2011-11-12T07:30:00Z,27.8383,-97.0503,0.0,34.3,1111122 
NERRS,ioos:station:NOAA.NERRS:marscwq:1,2011-11-12T08:00:00Z,27.8383,-97.0503,0.0,34.2,1111122 
NERRS,ioos:station:NOAA.NERRS:marscwq:1,2011-11-12T08:30:00Z,27.8383,-97.0503,0.0,34.2,1111122 
NERRS,ioos:station:NOAA.NERRS:marscwq:1,2011-11-12T09:00:00Z,27.8383,-97.0503,0.0,34.2,1111122 
NERRS,ioos:station:NOAA.NERRS:marscwq:1,2011-11-12T09:30:00Z,27.8383,-97.0503,0.0,34.2,1111122 
NERRS,ioos:station:NOAA.NERRS:marscwq:1,2011-11-12T10:00:00Z,27.8383,-97.0503,0.0,34.2,1111122 
NERRS,ioos:station:NOAA.NERRS:marscwq:1,2011-11-12T10:30:00Z,27.8383,-97.0503,0.0,34.2,1111122 
NERRS,ioos:station:NOAA.NERRS:marscwq:1,2011-11-12T11:00:00Z,27.8383,-97.0503,0.0,34.2,1111122 
NERRS,ioos:station:NOAA.NERRS:marscwq:1,2011-11-12T11:30:00Z,27.8383,-97.0503,0.0,34.2,1111122 
NERRS,ioos:station:NOAA.NERRS:marscwq:1,2011-11-12T12:00:00Z,27.8383,-97.0503,0.0,34.2,1111122 
NERRS,ioos:station:NOAA.NERRS:marscwq:1,2011-11-12T12:30:00Z,27.8383,-97.0503,0.0,34.2,1111122 
NERRS,ioos:station:NOAA.NERRS:marscwq:1,2011-11-12T13:00:00Z,27.8383,-97.0503,0.0,34.9,1111122 
NERRS,ioos:station:NOAA.NERRS:marscwq:1,2011-11-12T13:30:00Z,27.8383,-97.0503,0.0,35.3,1111122 
NERRS,ioos:station:NOAA.NERRS:marscwq:1,2011-11-12T14:00:00Z,27.8383,-97.0503,0.0,35.8,1111122 
NERRS,ioos:station:NOAA.NERRS:marscwq:1,2011-11-12T14:30:00Z,27.8383,-97.0503,0.0,36.0,1111122 
NERRS,ioos:station:NOAA.NERRS:marscwq:1,2011-11-12T15:00:00Z,27.8383,-97.0503,0.0,35.6,1111122 
NERRS,ioos:station:NOAA.NERRS:marscwq:1,2011-11-12T15:30:00Z,27.8383,-97.0503,0.0,35.8,1111122 
NERRS,ioos:station:NOAA.NERRS:marscwq:1,2011-11-12T16:00:00Z,27.8383,-97.0503,0.0,36.1,1111122 
NERRS,ioos:station:NOAA.NERRS:marscwq:1,2011-11-12T16:30:00Z,27.8383,-97.0503,0.0,36.4,1111122 
NERRS,ioos:station:NOAA.NERRS:marscwq:1,2011-11-12T17:00:00Z,27.8383,-97.0503,0.0,36.6,1111122 
NERRS,ioos:station:NOAA.NERRS:marscwq:1,2011-11-12T17:30:00Z,27.8383,-97.0503,0.0,36.7,1111122 
NERRS,ioos:station:NOAA.NERRS:marscwq:1,2011-11-12T18:00:00Z,27.8383,-97.0503,0.0,36.4,1111122 
NERRS,ioos:station:NOAA.NERRS:marscwq:1,2011-11-12T18:30:00Z,27.8383,-97.0503,0.0,36.2,1111122 
NERRS,ioos:station:NOAA.NERRS:marscwq:1,2011-11-12T19:00:00Z,27.8383,-97.0503,0.0,36.8,1111122 
NERRS,ioos:station:NOAA.NERRS:marscwq:1,2011-11-12T19:30:00Z,27.8383,-97.0503,0.0,36.9,1111122 
NERRS,ioos:station:NOAA.NERRS:marscwq:1,2011-11-12T20:00:00Z,27.8383,-97.0503,0.0,36.5,1111122 
NERRS,ioos:station:NOAA.NERRS:marscwq:1,2011-11-12T20:30:00Z,27.8383,-97.0503,0.0,36.5,1111122 
NERRS,ioos:station:NOAA.NERRS:marscwq:1,2011-11-12T21:00:00Z,27.8383,-97.0503,0.0,35.9,1111122 
NERRS,ioos:station:NOAA.NERRS:marscwq:1,2011-11-12T21:30:00Z,27.8383,-97.0503,0.0,35.4,1111122 
NERRS,ioos:station:NOAA.NERRS:marscwq:1,2011-11-12T22:00:00Z,27.8383,-97.0503,0.0,34.6,1111122 
NERRS,ioos:station:NOAA.NERRS:marscwq:1,2011-11-12T22:30:00Z,27.8383,-97.0503,0.0,34.8,1111122 
NERRS,ioos:station:NOAA.NERRS:marscwq:1,2011-11-12T23:00:00Z,27.8383,-97.0503,0.0,34.5,1111122 
NERRS,ioos:station:NOAA.NERRS:marscwq:1,2011-11-12T23:30:00Z,27.8383,-97.0503,0.0,34.5,1111122 
NERRS,ioos:station:NOAA.NERRS:marscwq:1,2011-11-13T00:00:00Z,27.8383,-97.0503,0.0,34.4,1111122 
NERRS,ioos:station:NOAA.NERRS:marscwq:1,2011-11-13T00:30:00Z,27.8383,-97.0503,0.0,34.4,1111122 
NERRS,ioos:station:NOAA.NERRS:marscwq:1,2011-11-13T01:00:00Z,27.8383,-97.0503,0.0,34.3,1111122 
NERRS,ioos:station:NOAA.NERRS:marscwq:1,2011-11-13T01:30:00Z,27.8383,-97.0503,0.0,34.3,1111122 
NERRS,ioos:station:NOAA.NERRS:marscwq:1,2011-11-13T02:00:00Z,27.8383,-97.0503,0.0,34.2,1111122 
NERRS,ioos:station:NOAA.NERRS:marscwq:1,2011-11-13T02:30:00Z,27.8383,-97.0503,0.0,34.2,1111122 
NERRS,ioos:station:NOAA.NERRS:marscwq:1,2011-11-13T03:00:00Z,27.8383,-97.0503,0.0,34.2,1111122 
NERRS,ioos:station:NOAA.NERRS:marscwq:1,2011-11-13T03:30:00Z,27.8383,-97.0503,0.0,34.1,1111122 
NERRS,ioos:station:NOAA.NERRS:marscwq:1,2011-11-13T04:00:00Z,27.8383,-97.0503,0.0,34.1,1111122 
NERRS,ioos:station:NOAA.NERRS:marscwq:1,2011-11-13T04:30:00Z,27.8383,-97.0503,0.0,34.1,1111122 
NERRS,ioos:station:NOAA.NERRS:marscwq:1,2011-11-13T05:00:00Z,27.8383,-97.0503,0.0,34.2,1111122 
NERRS,ioos:station:NOAA.NERRS:marscwq:1,2011-11-13T05:30:00Z,27.8383,-97.0503,0.0,34.2,1111122 
NERRS,ioos:station:NOAA.NERRS:marscwq:1,2011-11-13T06:00:00Z,27.8383,-97.0503,0.0,34.2,1111122 
NERRS,ioos:station:NOAA.NERRS:marscwq:1,2011-11-13T06:30:00Z,27.8383,-97.0503,0.0,34.2,1111122 
NERRS,ioos:station:NOAA.NERRS:marscwq:1,2011-11-13T07:00:00Z,27.8383,-97.0503,0.0,34.2,1111122 
NERRS,ioos:station:NOAA.NERRS:marscwq:1,2011-11-13T07:30:00Z,27.8383,-97.0503,0.0,34.2,1111122 
NERRS,ioos:station:NOAA.NERRS:marscwq:1,2011-11-13T08:00:00Z,27.8383,-97.0503,0.0,34.2,1111122 
NERRS,ioos:station:NOAA.NERRS:marscwq:1,2011-11-13T08:30:00Z,27.8383,-97.0503,0.0,34.2,1111122 
NERRS,ioos:station:NOAA.NERRS:marscwq:1,2011-11-13T09:00:00Z,27.8383,-97.0503,0.0,34.2,1111122 
NERRS,ioos:station:NOAA.NERRS:marscwq:1,2011-11-13T09:30:00Z,27.8383,-97.0503,0.0,34.2,1111122 
NERRS,ioos:station:NOAA.NERRS:marscwq:1,2011-11-13T10:00:00Z,27.8383,-97.0503,0.0,34.2,1111122 
NERRS,ioos:station:NOAA.NERRS:marscwq:1,2011-11-13T10:30:00Z,27.8383,-97.0503,0.0,34.2,1111122 
NERRS,ioos:station:NOAA.NERRS:marscwq:1,2011-11-13T11:00:00Z,27.8383,-97.0503,0.0,34.3,1111122 
NERRS,ioos:station:NOAA.NERRS:marscwq:1,2011-11-13T11:30:00Z,27.8383,-97.0503,0.0,34.3,1111122 
NERRS,ioos:station:NOAA.NERRS:marscwq:1,2011-11-13T12:00:00Z,27.8383,-97.0503,0.0,34.3,1111122 
NERRS,ioos:station:NOAA.NERRS:marscwq:1,2011-11-13T12:30:00Z,27.8383,-97.0503,0.0,34.3,1111122 
NERRS,ioos:station:NOAA.NERRS:marscwq:1,2011-11-13T13:00:00Z,27.8383,-97.0503,0.0,34.3,1111122 
NERRS,ioos:station:NOAA.NERRS:marscwq:1,2011-11-13T13:30:00Z,27.8383,-97.0503,0.0,34.4,1111122 
NERRS,ioos:station:NOAA.NERRS:marscwq:1,2011-11-13T14:00:00Z,27.8383,-97.0503,0.0,35.5,1111122 
NERRS,ioos:station:NOAA.NERRS:marscwq:1,2011-11-13T14:30:00Z,27.8383,-97.0503,0.0,35.8,1111122 
NERRS,ioos:station:NOAA.NERRS:marscwq:1,2011-11-13T15:00:00Z,27.8383,-97.0503,0.0,36.0,1111122 
NERRS,ioos:station:NOAA.NERRS:marscwq:1,2011-11-13T15:30:00Z,27.8383,-97.0503,0.0,36.1,1111122 
NERRS,ioos:station:NOAA.NERRS:marscwq:1,2011-11-13T16:00:00Z,27.8383,-97.0503,0.0,36.4,1111122 
NERRS,ioos:station:NOAA.NERRS:marscwq:1,2011-11-13T16:30:00Z,27.8383,-97.0503,0.0,36.5,1111122 
NERRS,ioos:station:NOAA.NERRS:marscwq:1,2011-11-13T17:00:00Z,27.8383,-97.0503,0.0,36.0,1111122 
NERRS,ioos:station:NOAA.NERRS:marscwq:1,2011-11-13T17:30:00Z,27.8383,-97.0503,0.0,36.2,1111122 
NERRS,ioos:station:NOAA.NERRS:marscwq:1,2011-11-13T18:00:00Z,27.8383,-97.0503,0.0,36.3,1111122 
NERRS,ioos:station:NOAA.NERRS:marscwq:1,2011-11-13T18:30:00Z,27.8383,-97.0503,0.0,36.3,1111122 
NERRS,ioos:station:NOAA.NERRS:marscwq:1,2011-11-13T19:00:00Z,27.8383,-97.0503,0.0,36.2,1111122 
NERRS,ioos:station:NOAA.NERRS:marscwq:1,2011-11-13T19:30:00Z,27.8383,-97.0503,0.0,36.7,1111122 
NERRS,ioos:station:NOAA.NERRS:marscwq:1,2011-11-13T20:00:00Z,27.8383,-97.0503,0.0,36.5,1111122 
NERRS,ioos:station:NOAA.NERRS:marscwq:1,2011-11-13T20:30:00Z,27.8383,-97.0503,0.0,36.4,1111122 
NERRS,ioos:station:NOAA.NERRS:marscwq:1,2011-11-13T21:00:00Z,27.8383,-97.0503,0.0,36.3,1111122 
NERRS,ioos:station:NOAA.NERRS:marscwq:1,2011-11-13T21:30:00Z,27.8383,-97.0503,0.0,36.5,1111122 
NERRS,ioos:station:NOAA.NERRS:marscwq:1,2011-11-13T22:00:00Z,27.8383,-97.0503,0.0,36.0,1111122 
NERRS,ioos:station:NOAA.NERRS:marscwq:1,2011-11-13T22:30:00Z,27.8383,-97.0503,0.0,34.9,1111122 
NERRS,ioos:station:NOAA.NERRS:marscwq:1,2011-11-13T23:00:00Z,27.8383,-97.0503,0.0,35.0,1111122 
NERRS,ioos:station:NOAA.NERRS:marscwq:1,2011-11-13T23:30:00Z,27.8383,-97.0503,0.0,34.8,1111122 
NERRS,ioos:station:NOAA.NERRS:marscwq:1,2011-11-14T00:00:00Z,27.8383,-97.0503,0.0,34.7,1111122 
NERRS,ioos:station:NOAA.NERRS:marscwq:1,2011-11-14T00:30:00Z,27.8383,-97.0503,0.0,34.7,1111122 
NERRS,ioos:station:NOAA.NERRS:marscwq:1,2011-11-14T01:00:00Z,27.8383,-97.0503,0.0,34.6,1111122 
NERRS,ioos:station:NOAA.NERRS:marscwq:1,2011-11-14T01:30:00Z,27.8383,-97.0503,0.0,34.5,1111122 
NERRS,ioos:station:NOAA.NERRS:marscwq:1,2011-11-14T02:00:00Z,27.8383,-97.0503,0.0,34.4,1111122 
NERRS,ioos:station:NOAA.NERRS:marscwq:1,2011-11-14T02:30:00Z,27.8383,-97.0503,0.0,34.4,1111122 
NERRS,ioos:station:NOAA.NERRS:marscwq:1,2011-11-14T03:00:00Z,27.8383,-97.0503,0.0,34.3,1111122 
NERRS,ioos:station:NOAA.NERRS:marscwq:1,2011-11-14T03:30:00Z,27.8383,-97.0503,0.0,34.4,1111122 
NERRS,ioos:station:NOAA.NERRS:marscwq:1,2011-11-14T04:00:00Z,27.8383,-97.0503,0.0,34.4,1111122 
NERRS,ioos:station:NOAA.NERRS:marscwq:1,2011-11-14T04:30:00Z,27.8383,-97.0503,0.0,34.3,1111122 
NERRS,ioos:station:NOAA.NERRS:marscwq:1,2011-11-14T05:00:00Z,27.8383,-97.0503,0.0,34.3,1111122 
NERRS,ioos:station:NOAA.NERRS:marscwq:1,2011-11-14T05:30:00Z,27.8383,-97.0503,0.0,34.4,1111122 
NERRS,ioos:station:NOAA.NERRS:marscwq:1,2011-11-14T06:00:00Z,27.8383,-97.0503,0.0,34.3,1111122 
NERRS,ioos:station:NOAA.NERRS:marscwq:1,2011-11-14T06:30:00Z,27.8383,-97.0503,0.0,34.3,1111122 
NERRS,ioos:station:NOAA.NERRS:marscwq:1,2011-11-14T07:00:00Z,27.8383,-97.0503,0.0,34.3,1111122 
NERRS,ioos:station:NOAA.NERRS:marscwq:1,2011-11-14T07:30:00Z,27.8383,-97.0503,0.0,34.4,1111122 
NERRS,ioos:station:NOAA.NERRS:marscwq:1,2011-11-14T08:00:00Z,27.8383,-97.0503,0.0,34.4,1111122 
NERRS,ioos:station:NOAA.NERRS:marscwq:1,2011-11-14T08:30:00Z,27.8383,-97.0503,0.0,34.4,1111122 
NERRS,ioos:station:NOAA.NERRS:marscwq:1,2011-11-14T09:00:00Z,27.8383,-97.0503,0.0,34.4,1111122 
NERRS,ioos:station:NOAA.NERRS:marscwq:1,2011-11-14T09:30:00Z,27.8383,-97.0503,0.0,34.4,1111122 
NERRS,ioos:station:NOAA.NERRS:marscwq:1,2011-11-14T10:00:00Z,27.8383,-97.0503,0.0,34.3,1111122 
NERRS,ioos:station:NOAA.NERRS:marscwq:1,2011-11-14T10:30:00Z,27.8383,-97.0503,0.0,34.4,1111122 
NERRS,ioos:station:NOAA.NERRS:marscwq:1,2011-11-14T11:00:00Z,27.8383,-97.0503,0.0,34.4,1111122 
NERRS,ioos:station:NOAA.NERRS:marscwq:1,2011-11-14T11:30:00Z,27.8383,-97.0503,0.0,34.4,1111122 